When you browse on this site, cookies collect data to enhance your experience and personalize the content and advertising you see.
Visit our Privacy Policy to learn more. By continuing to use the site, you agree to this use of cookies and data.
  • In Hungary
  • List of Countries
  • For 7 days
  • Water Temperature
  • Weather Map
  • News
  • Weather Widgets
  • user-avatar
    Login

    Hourly Weather Yasnyshche

    Today, 3 April, Friday

    Time Temperature Precipitation Wind Pressure Humidity
    00:00 +1°C° 0 mm 3 mps 725 mmHg 61%
    01:00 0°C° 0 mm 4 mps 725 mmHg 60%
    02:00 0°C° 0 mm 4 mps 725 mmHg 58%
    03:00 -1°C° 0 mm 4 mps 725 mmHg 59%
    04:00 -1°C° 0 mm 4 mps 724 mmHg 59%
    05:00 -1°C° 0 mm 5 mps 724 mmHg 59%
    06:00 0°C° 0 mm 5 mps 724 mmHg 57%
    07:00 +1°C° 0 mm 6 mps 725 mmHg 56%
    08:00 +2°C° 0 mm 7 mps 725 mmHg 54%
    09:00 +4°C° 0 mm 7 mps 725 mmHg 52%
    10:00 +5°C° 0 mm 6 mps 725 mmHg 50%
    11:00 +8°C° 0 mm 6 mps 725 mmHg 48%
    12:00 +9°C° 0 mm 6 mps 725 mmHg 46%
    13:00 +9°C° 0 mm 6 mps 725 mmHg 44%
    14:00 +10°C° 0 mm 6 mps 725 mmHg 42%
    15:00 +10°C° 0 mm 6 mps 725 mmHg 45%
    16:00 +9°C° 0 mm 6 mps 725 mmHg 48%
    17:00 +9°C° 0 mm 6 mps 725 mmHg 51%
    18:00 +8°C° 0 mm 5 mps 726 mmHg 58%
    19:00 +6°C° 0 mm 4 mps 727 mmHg 65%
    20:00 +5°C° 0 mm 3 mps 727 mmHg 73%
    21:00 +4°C° 0 mm 3 mps 728 mmHg 77%
    22:00 +4°C° 0 mm 2 mps 728 mmHg 81%
    23:00 +4°C° 0 mm 2 mps 729 mmHg 85%

    Tomorrow, 4 April, Saturday

    Time Temperature Precipitation Wind Pressure Humidity
    00:00 +3°C° 0 mm 2 mps 729 mmHg 85%
    01:00 +3°C° 0 mm 2 mps 730 mmHg 86%
    02:00 +2°C° 0 mm 2 mps 730 mmHg 86%
    03:00 +2°C° 0 mm 2 mps 731 mmHg 85%
    04:00 +1°C° 0 mm 2 mps 731 mmHg 84%
    05:00 +1°C° 0 mm 2 mps 731 mmHg 83%
    06:00 +2°C° 0 mm 2 mps 732 mmHg 78%
    07:00 +3°C° 0 mm 2 mps 733 mmHg 72%
    08:00 +4°C° 0 mm 2 mps 733 mmHg 66%
    09:00 +5°C° 0 mm 2 mps 734 mmHg 60%
    10:00 +6°C° 0 mm 2 mps 734 mmHg 54%
    11:00 +7°C° 0 mm 2 mps 734 mmHg 47%
    12:00 +8°C° 0 mm 2 mps 734 mmHg 46%
    13:00 +8°C° 0 mm 2 mps 735 mmHg 45%
    14:00 +8°C° 0 mm 2 mps 735 mmHg 44%
    15:00 +8°C° 0.1 mm 2 mps 735 mmHg 47%
    16:00 +8°C° 0.1 mm 2 mps 735 mmHg 51%
    17:00 +8°C° 0.1 mm 2 mps 735 mmHg 54%
    18:00 +7°C° 0 mm 2 mps 736 mmHg 59%
    19:00 +7°C° 0 mm 1 mps 736 mmHg 63%
    20:00 +6°C° 0 mm 1 mps 737 mmHg 68%
    21:00 +5°C° 0 mm 1 mps 737 mmHg 69%
    22:00 +5°C° 0 mm 1 mps 738 mmHg 71%
    23:00 +4°C° 0 mm 1 mps 738 mmHg 72%

    Day after tomorrow, 5 April, Sunday

    Time Temperature Precipitation Wind Pressure Humidity
    00:00 +4°C° 0 mm 1 mps 739 mmHg 73%
    01:00 +3°C° 0 mm 1 mps 739 mmHg 74%
    02:00 +3°C° 0 mm 1 mps 739 mmHg 75%
    03:00 +1°C° 0 mm 2 mps 740 mmHg 74%
    04:00 +1°C° 0 mm 2 mps 740 mmHg 72%
    05:00 +1°C° 0 mm 2 mps 741 mmHg 71%
    06:00 +1°C° 0 mm 2 mps 741 mmHg 67%
    07:00 +1°C° 0 mm 3 mps 742 mmHg 63%
    08:00 +2°C° 0 mm 3 mps 742 mmHg 59%
    09:00 +3°C° 0 mm 3 mps 742 mmHg 54%
    10:00 +5°C° 0 mm 3 mps 743 mmHg 50%
    11:00 +7°C° 0 mm 3 mps 743 mmHg 45%
    12:00 +7°C° 0 mm 3 mps 743 mmHg 41%
    13:00 +8°C° 0 mm 3 mps 743 mmHg 37%
    14:00 +8°C° 0 mm 3 mps 743 mmHg 33%
    15:00 +8°C° 0 mm 3 mps 743 mmHg 34%
    16:00 +8°C° 0 mm 3 mps 743 mmHg 34%
    17:00 +8°C° 0 mm 3 mps 743 mmHg 34%
    18:00 +7°C° 0 mm 3 mps 743 mmHg 39%
    19:00 +4°C° 0 mm 3 mps 743 mmHg 44%
    20:00 +3°C° 0 mm 3 mps 743 mmHg 49%
    21:00 +2°C° 0 mm 3 mps 744 mmHg 51%
    22:00 +2°C° 0 mm 3 mps 744 mmHg 53%
    23:00 +1°C° 0 mm 3 mps 744 mmHg 55%

    6 April, Monday

    Time Temperature Precipitation Wind Pressure Humidity
    00:00 +1°C° 0 mm 3 mps 744 mmHg 56%
    01:00 +1°C° 0 mm 3 mps 744 mmHg 58%
    02:00 -1°C° 0 mm 4 mps 744 mmHg 59%
    03:00 -1°C° 0 mm 4 mps 744 mmHg 60%
    04:00 -1°C° 0 mm 4 mps 744 mmHg 60%
    05:00 -2°C° 0 mm 4 mps 744 mmHg 61%
    06:00 -1°C° 0 mm 5 mps 745 mmHg 57%
    07:00 -1°C° 0 mm 6 mps 745 mmHg 53%
    08:00 +2°C° 0 mm 6 mps 745 mmHg 50%
    09:00 +3°C° 0 mm 6 mps 745 mmHg 46%
    10:00 +4°C° 0 mm 6 mps 745 mmHg 43%
    11:00 +7°C° 0 mm 6 mps 745 mmHg 39%
    12:00 +8°C° 0 mm 6 mps 745 mmHg 38%
    13:00 +9°C° 0 mm 6 mps 745 mmHg 36%
    14:00 +10°C° 0 mm 6 mps 745 mmHg 34%
    15:00 +10°C° 0 mm 6 mps 745 mmHg 35%
    16:00 +9°C° 0 mm 6 mps 744 mmHg 36%
    17:00 +9°C° 0 mm 5 mps 744 mmHg 37%
    18:00 +8°C° 0 mm 5 mps 744 mmHg 40%
    19:00 +6°C° 0 mm 5 mps 744 mmHg 44%
    20:00 +5°C° 0 mm 4 mps 744 mmHg 48%
    21:00 +4°C° 0 mm 4 mps 744 mmHg 47%
    22:00 +4°C° 0 mm 4 mps 744 mmHg 47%
    23:00 +2°C° 0 mm 5 mps 744 mmHg 47%

    7 April, Tuesday

    Time Temperature Precipitation Wind Pressure Humidity
    00:00 +2°C° 0 mm 5 mps 744 mmHg 47%
    01:00 +2°C° 0 mm 5 mps 743 mmHg 47%
    02:00 +1°C° 0 mm 4 mps 743 mmHg 47%
    03:00 +1°C° 0 mm 4 mps 743 mmHg 48%
    04:00 +1°C° 0 mm 4 mps 743 mmHg 49%
    05:00 0°C° 0 mm 4 mps 743 mmHg 50%
    06:00 +1°C° 0 mm 4 mps 743 mmHg 48%
    07:00 +3°C° 0 mm 5 mps 743 mmHg 46%
    08:00 +5°C° 0 mm 5 mps 743 mmHg 44%
    09:00 +7°C° 0 mm 5 mps 743 mmHg 41%
    10:00 +8°C° 0 mm 5 mps 743 mmHg 39%
    11:00 +10°C° 0 mm 5 mps 744 mmHg 36%
    12:00 +12°C° 0 mm 4 mps 743 mmHg 34%
    13:00 +13°C° 0 mm 4 mps 743 mmHg 32%
    14:00 +14°C° 0 mm 4 mps 743 mmHg 30%
    15:00 +14°C° 0 mm 3 mps 743 mmHg 31%
    16:00 +14°C° 0 mm 3 mps 742 mmHg 32%
    17:00 +15°C° 0 mm 2 mps 742 mmHg 32%
    18:00 +13°C° 0 mm 2 mps 742 mmHg 37%
    19:00 +10°C° 0 mm 2 mps 742 mmHg 42%
    20:00 +9°C° 0 mm 2 mps 742 mmHg 47%
    21:00 +8°C° 0 mm 2 mps 742 mmHg 49%
    22:00 +7°C° 0 mm 2 mps 742 mmHg 51%
    23:00 +7°C° 0 mm 2 mps 742 mmHg 53%

    8 April, Wednesday

    Time Temperature Precipitation Wind Pressure Humidity
    00:00 +6°C° 0 mm 2 mps 742 mmHg 54%
    01:00 +6°C° 0 mm 2 mps 742 mmHg 55%
    02:00 +5°C° 0 mm 2 mps 742 mmHg 55%
    03:00 +6°C° 0 mm 1 mps 742 mmHg 55%
    04:00 +6°C° 0 mm 1 mps 742 mmHg 56%
    05:00 +5°C° 0 mm 1 mps 742 mmHg 56%
    06:00 +7°C° 0 mm 1 mps 742 mmHg 54%
    07:00 +8°C° 0 mm 1 mps 742 mmHg 51%
    08:00 +9°C° 0 mm 1 mps 742 mmHg 49%
    09:00 +11°C° 0 mm 1 mps 742 mmHg 45%
    10:00 +13°C° 0 mm 2 mps 742 mmHg 42%
    11:00 +14°C° 0 mm 2 mps 742 mmHg 38%
    12:00 +15°C° 0 mm 2 mps 742 mmHg 35%
    13:00 +16°C° 0 mm 2 mps 742 mmHg 32%
    14:00 +17°C° 0 mm 3 mps 742 mmHg 30%
    15:00 +17°C° 0 mm 3 mps 741 mmHg 31%
    16:00 +17°C° 0 mm 3 mps 741 mmHg 32%
    17:00 +17°C° 0 mm 3 mps 741 mmHg 34%
    18:00 +15°C° 0 mm 2 mps 741 mmHg 39%
    19:00 +13°C° 0 mm 2 mps 740 mmHg 44%
    20:00 +10°C° 0 mm 2 mps 740 mmHg 49%
    21:00 +11°C° 0 mm 1 mps 740 mmHg 51%
    22:00 +10°C° 0 mm 1 mps 740 mmHg 52%
    23:00 +9°C° 0 mm 1 mps 741 mmHg 54%
    Show more